period_start,C,m1,H,J0,J1,J2,J3,J4,J5,JA,JB,JC,JD,JJ,JK,JN,#
2017-04-06 00:02:08,0.07,1.04,0.00,21.33,24.73,28.57,14.47,47.95,1009.79,2040.08,3146.14,2817.69,3220.29,599.86,595.18,11.30,0000 0000 0000 0000 000000
2017-04-06 00:07:09,0.08,1.04,0.00,21.40,24.75,28.56,14.55,47.83,1009.79,2040.02,3144.50,2816.54,3218.90,600.13,595.30,11.35,0000 0000 0000 0000 000000
2017-04-06 00:12:10,0.08,1.05,0.00,21.40,24.78,28.60,14.63,48.11,1009.80,2040.00,3142.63,2815.37,3217.52,600.22,595.48,11.40,0000 0000 0000 0000 000000
2017-04-06 00:17:12,0.08,1.05,0.00,21.38,24.80,28.65,14.51,48.02,1009.83,2040.00,3140.81,2814.20,3216.05,600.22,595.44,11.46,0000 0000 0000 0000 000000
2017-04-06 00:22:13,0.10,1.06,0.00,21.37,24.82,28.70,14.54,48.10,1009.80,2040.00,3138.96,2812.88,3214.60,600.07,595.45,11.51,0000 0000 0000 0000 000000
2017-04-06 00:27:14,0.09,1.06,0.00,21.31,24.85,28.70,14.54,47.98,1009.80,2040.00,3137.08,2811.66,3213.18,600.14,595.58,11.56,0000 0000 0000 0000 000000
2017-04-06 00:32:16,0.09,1.07,0.00,21.30,24.87,28.74,14.53,48.09,1009.80,2040.00,3135.25,2810.42,3211.69,599.95,595.47,11.61,0000 0000 0000 0000 000000
2017-04-06 00:37:17,0.08,1.07,0.00,21.34,24.90,28.77,14.61,48.13,1009.79,2039.97,3133.45,2809.08,3210.25,599.76,595.07,11.66,0000 0000 0000 0000 000000
2017-04-06 00:42:18,0.10,1.08,0.00,21.28,24.92,28.81,14.47,48.01,1009.80,2039.93,3131.45,2807.79,3208.67,599.94,595.48,11.71,0000 0000 0000 0000 000000
2017-04-06 00:47:19,0.07,1.08,0.00,21.25,24.94,28.89,14.52,48.08,1009.81,2039.74,3129.39,2806.44,3207.13,599.90,595.48,11.76,0000 0000 0000 0000 000000
2017-04-06 00:52:20,0.10,1.08,0.00,21.24,24.96,28.93,14.59,48.00,1009.81,2039.70,3127.41,2805.12,3205.65,600.47,595.91,11.81,0000 0000 0000 0000 000000
2017-04-06 00:57:21,0.07,1.09,0.00,21.18,24.97,28.98,14.54,48.08,1009.81,2039.36,3125.35,2803.78,3204.09,599.99,595.72,11.86,0000 0000 0000 0000 000000
2017-04-06 01:02:22,0.10,1.09,0.00,21.15,24.97,28.93,14.60,48.12,1009.80,2039.26,3123.42,2802.53,3202.61,599.85,595.62,11.91,0000 0000 0000 0000 000000
2017-04-06 01:07:23,0.08,1.10,0.00,21.13,24.99,28.84,14.59,48.05,1009.83,2039.12,3121.27,2801.08,3200.96,600.04,595.85,11.96,0000 0000 0000 0000 000000
2017-04-06 01:12:25,0.10,1.10,0.00,21.12,25.00,28.77,14.57,48.04,1009.95,2039.04,3119.18,2799.74,3199.41,600.06,595.96,12.01,0000 0000 0000 0000 000000
2017-04-06 01:17:26,0.10,1.11,0.00,21.13,25.00,28.75,14.57,48.08,1010.04,2039.03,3117.03,2798.36,3197.88,599.93,595.93,12.06,0000 0000 0000 0000 000000
2017-04-06 01:22:28,0.09,1.11,0.00,21.20,25.02,28.72,14.68,48.05,1010.09,2039.03,3115.04,2796.96,3196.32,600.49,596.27,12.11,0000 0000 0000 0000 000000
2017-04-06 01:27:29,0.11,1.12,0.00,21.24,25.02,28.75,14.47,47.94,1010.18,2039.02,3112.91,2795.66,3194.73,600.27,596.07,12.16,0000 0000 0000 0000 000000
2017-04-06 01:32:30,0.09,1.12,0.00,21.33,25.03,28.77,14.56,47.93,1010.24,2039.05,3110.87,2794.30,3193.22,600.21,595.91,12.21,0000 0000 0000 0000 000000
2017-04-06 01:37:31,0.10,1.13,0.00,21.48,25.05,28.90,14.57,48.04,1010.26,2039.01,3108.90,2792.95,3191.70,600.25,595.67,12.26,0000 0000 0000 0000 000000
2017-04-06 01:42:32,0.10,1.13,0.00,21.54,25.07,28.94,14.56,47.96,1010.27,2039.00,3106.90,2791.59,3190.05,600.27,595.46,12.31,0000 0000 0000 0000 000000
2017-04-06 01:47:33,0.09,1.14,0.00,21.63,25.10,28.92,14.48,47.94,1010.27,2039.00,3104.90,2790.25,3188.55,599.98,595.00,12.36,0000 0000 0000 0000 000000
2017-04-06 01:52:34,0.11,1.14,0.00,21.70,25.12,28.90,14.49,48.02,1010.27,2039.00,3102.72,2788.77,3186.87,599.82,594.75,12.41,0000 0000 0000 0000 000000
2017-04-06 01:57:36,0.11,1.15,0.00,21.71,25.16,28.93,14.48,48.02,1010.27,2038.97,3100.56,2787.23,3185.07,599.97,594.84,12.46,0000 0000 0000 0000 000000
2017-04-06 02:02:37,0.16,1.16,0.00,21.73,25.19,28.93,14.49,48.11,1010.27,2038.96,3097.63,2784.94,3182.51,599.96,594.82,12.51,0000 0000 0000 0000 000000
2017-04-06 02:07:38,0.12,1.16,0.00,21.80,25.22,28.99,14.60,48.11,1010.28,2038.55,3094.43,2782.55,3179.83,600.06,594.78,12.56,0000 0000 0000 0000 000000
2017-04-06 02:12:39,0.15,1.17,0.00,21.74,25.25,29.02,14.49,48.18,1010.30,2038.15,3090.86,2780.01,3176.93,599.72,594.58,12.61,0000 0000 0000 0000 000000
2017-04-06 02:17:41,0.12,1.18,0.00,21.76,25.28,29.05,14.53,48.10,1010.33,2038.01,3088.11,2778.15,3174.81,599.97,594.80,12.66,0000 0000 0000 0000 000000
2017-04-06 02:22:42,0.12,1.19,0.00,21.82,25.31,29.10,14.56,47.95,1010.36,2038.00,3085.80,2776.59,3172.93,600.15,595.04,12.71,0000 0000 0000 0000 000000
2017-04-06 02:27:43,0.14,1.19,0.00,21.86,25.34,29.12,14.57,48.01,1010.36,2038.00,3083.22,2774.83,3170.92,600.19,594.87,12.76,0000 0000 0000 0000 000000
2017-04-06 02:32:44,0.23,1.20,0.00,21.92,25.36,29.16,14.50,47.95,1010.45,2037.99,3079.09,2771.90,3167.62,599.96,594.61,12.81,0000 0000 0000 0000 000000
2017-04-06 02:37:45,0.25,1.21,0.00,22.09,25.40,29.15,14.48,47.88,1010.64,2037.94,3074.30,2768.50,3163.78,599.87,594.26,12.86,0000 0000 0000 0000 000000
2017-04-06 02:42:47,0.20,1.22,0.00,22.20,25.43,29.18,14.46,47.87,1010.63,2037.67,3069.74,2765.38,3160.25,599.88,594.03,12.91,0000 0000 0000 0000 000000
2017-04-06 02:47:48,0.27,1.24,0.00,22.29,25.46,29.22,14.50,47.82,1010.74,2037.24,3063.10,2761.77,3156.18,600.29,594.22,12.96,0000 0000 0000 0000 000000
2017-04-06 02:52:50,0.32,1.25,0.00,22.45,25.50,29.28,14.43,47.77,1010.76,2037.04,3055.37,2757.91,3151.76,599.92,593.66,13.01,0000 0000 0000 0000 000000
2017-04-06 02:57:51,0.22,1.27,0.00,22.52,25.54,29.30,14.47,47.83,1010.76,2037.00,3049.44,2754.79,3148.25,599.95,593.49,13.06,0000 0000 0000 0000 000000
2017-04-06 03:02:52,0.13,1.28,0.00,22.47,25.58,29.34,14.47,48.01,1010.76,2037.00,3046.70,2752.96,3146.11,599.95,593.59,13.11,0000 0000 0000 0000 000000
2017-04-06 03:07:54,0.13,1.28,0.00,22.48,25.63,29.40,14.42,47.73,1010.76,2036.98,3044.14,2751.30,3144.07,599.90,593.55,13.16,0000 0000 0000 0000 000000
2017-04-06 03:12:55,0.13,1.29,0.00,22.56,25.67,29.47,14.45,47.88,1010.76,2036.84,3041.32,2749.53,3141.86,599.91,593.36,13.21,0000 0000 0000 0000 000000
2017-04-06 03:17:56,0.07,1.29,0.00,22.60,25.72,29.50,14.43,47.83,1010.76,2036.21,3038.72,2747.72,3139.82,599.61,593.12,13.26,0000 0000 0000 0000 000000
2017-04-06 03:22:57,0.12,1.30,0.00,22.64,25.77,29.56,14.48,47.86,1010.77,2036.01,3036.24,2745.97,3137.82,599.97,593.21,13.31,0000 0000 0000 0000 000000
2017-04-06 03:27:59,0.13,1.31,0.00,22.73,25.82,29.60,14.42,47.88,1010.76,2036.00,3033.71,2744.22,3135.80,600.09,593.24,13.36,0000 0000 0000 0000 000000
2017-04-06 03:33:00,0.13,1.31,0.00,22.84,25.88,29.62,14.40,47.86,1010.77,2035.99,3031.19,2742.46,3133.92,599.98,592.90,13.41,0000 0000 0000 0000 000000
2017-04-06 03:38:00,0.12,1.32,0.00,22.93,25.93,29.67,14.44,47.88,1010.79,2035.91,3028.81,2740.76,3131.95,599.92,592.74,13.46,0000 0000 0000 0000 000000
2017-04-06 03:43:01,0.05,1.32,0.00,23.01,25.98,29.72,14.46,47.93,1010.84,2035.23,3026.47,2739.04,3129.94,600.35,592.94,13.51,0000 0000 0000 0000 000000
2017-04-06 03:48:03,0.12,1.33,0.00,23.07,26.04,29.76,14.42,47.77,1011.12,2035.01,3024.07,2737.31,3127.89,600.20,592.96,13.56,0000 0000 0000 0000 000000
2017-04-06 03:53:04,0.13,1.33,0.00,23.17,26.09,29.82,14.43,47.87,1011.14,2034.99,3021.52,2735.56,3125.78,600.18,592.66,13.61,0000 0000 0000 0000 000000
2017-04-06 03:58:05,0.12,1.34,0.00,23.24,26.14,29.86,14.33,47.77,1011.21,2034.86,3019.02,2733.78,3123.70,599.93,592.38,13.66,0000 0000 0000 0000 000000
2017-04-06 04:03:07,0.07,1.35,0.00,23.29,26.20,29.90,14.40,47.79,1011.21,2034.24,3016.40,2731.95,3121.62,599.85,592.15,13.71,0000 0000 0000 0000 000000
2017-04-06 04:08:08,0.13,1.35,0.00,23.37,26.25,29.97,14.42,47.77,1011.19,2034.01,3013.72,2730.14,3119.48,599.99,592.06,13.77,0000 0000 0000 0000 000000
2017-04-06 04:13:09,0.13,1.36,0.00,23.39,26.30,30.02,14.38,47.71,1011.20,2033.99,3011.23,2728.39,3117.46,599.70,591.79,13.82,0000 0000 0000 0000 000000
2017-04-06 04:18:11,0.14,1.36,0.00,23.42,26.35,30.06,14.44,47.73,1011.23,2033.96,3008.65,2726.64,3115.43,600.02,592.03,13.87,0000 0000 0000 0000 000000
2017-04-06 04:23:12,0.09,1.37,0.00,23.50,26.41,30.10,14.45,47.74,1011.23,2033.62,3006.18,2724.88,3113.36,600.23,592.10,13.92,0000 0000 0000 0000 000000
2017-04-06 04:28:13,0.09,1.37,0.00,23.54,26.46,30.19,14.38,47.69,1011.22,2033.11,3003.73,2723.13,3111.32,599.78,591.58,13.97,0000 0000 0000 0000 000000
2017-04-06 04:33:14,0.13,1.38,0.00,23.56,26.51,30.25,14.41,47.66,1011.24,2033.00,3001.23,2721.34,3109.27,599.97,591.74,14.02,0000 0000 0000 0000 000000
2017-04-06 04:38:16,0.13,1.39,0.00,23.62,26.57,30.31,14.51,47.66,1011.24,2032.98,2998.84,2719.62,3107.22,600.49,592.05,14.07,0000 0000 0000 0000 000000
2017-04-06 04:43:17,0.07,1.39,0.00,23.68,26.62,30.38,14.30,47.63,1011.25,2032.60,2996.43,2717.81,3105.20,599.58,591.02,14.12,0000 0000 0000 0000 000000
2017-04-06 04:48:19,0.10,1.40,0.00,23.69,26.67,30.45,14.33,47.58,1011.26,2032.05,2993.96,2716.11,3103.19,599.90,591.41,14.17,0000 0000 0000 0000 000000
2017-04-06 04:53:20,0.13,1.40,0.00,23.73,26.73,30.51,14.35,47.52,1011.26,2032.00,2991.41,2714.25,3101.04,600.05,591.47,14.22,0000 0000 0000 0000 000000
2017-04-06 04:58:22,0.14,1.41,0.00,23.80,26.78,30.56,14.37,47.64,1011.27,2032.00,2988.97,2712.54,3098.98,599.96,591.36,14.27,0000 0000 0000 0000 000000
2017-04-06 05:03:23,0.13,1.42,0.00,23.77,26.83,30.59,14.37,47.58,1011.25,2031.97,2986.41,2710.75,3096.97,600.10,591.40,14.32,0000 0000 0000 0000 000000
2017-04-06 05:08:25,0.08,1.42,0.00,23.72,26.88,30.65,14.51,47.69,1011.26,2031.57,2983.90,2708.98,3094.88,600.24,591.66,14.37,0000 0000 0000 0000 000000
2017-04-06 05:13:26,0.11,1.43,0.00,23.79,26.92,30.76,14.41,47.57,1011.26,2031.09,2981.28,2707.19,3092.79,599.89,591.17,14.42,0000 0000 0000 0000 000000
2017-04-06 05:18:27,0.14,1.43,0.00,23.86,26.97,30.83,14.48,47.62,1011.31,2031.00,2978.50,2705.25,3090.57,600.10,591.20,14.47,0000 0000 0000 0000 000000
2017-04-06 05:23:29,0.14,1.44,0.00,23.90,27.02,30.86,14.43,47.60,1011.31,2030.99,2975.82,2703.38,3088.39,600.04,591.16,14.52,0000 0000 0000 0000 000000
2017-04-06 05:28:30,0.12,1.45,0.00,24.31,27.07,30.86,14.30,47.53,1011.48,2030.85,2973.28,2701.50,3086.23,599.98,590.41,14.57,0000 0000 0000 0000 000000
2017-04-06 05:33:31,0.07,1.45,0.00,24.40,27.13,30.83,14.34,47.52,1011.58,2030.20,2970.84,2699.70,3084.14,600.12,590.49,14.62,0000 0000 0000 0000 000000
2017-04-06 05:38:32,0.14,1.46,0.00,24.16,27.18,30.81,14.30,47.62,1011.64,2030.00,2968.26,2697.82,3081.97,599.67,590.44,14.67,0000 0000 0000 0000 000000
2017-04-06 05:43:33,0.14,1.47,0.00,24.37,27.22,30.88,14.28,47.69,1011.60,2030.00,2965.62,2695.99,3079.86,599.77,590.16,14.72,0000 0000 0000 0000 000000
2017-04-06 05:48:35,0.13,1.47,0.00,24.32,27.26,30.93,14.35,47.48,1011.56,2029.96,2963.18,2694.25,3077.84,599.67,590.11,14.77,0000 0000 0000 0000 000000
2017-04-06 05:53:36,0.11,1.48,0.00,24.18,27.29,31.00,14.28,47.48,1011.49,2029.80,2960.80,2692.63,3075.92,599.48,590.08,14.82,0000 0000 0000 0000 000000
2017-04-06 05:58:37,0.07,1.48,0.00,24.12,27.30,31.05,14.44,47.58,1011.61,2029.39,2958.48,2691.09,3074.09,600.11,590.97,14.87,0000 0000 0000 0000 000000
2017-04-06 06:03:38,0.11,1.49,0.00,24.06,27.32,31.10,14.44,47.50,1011.65,2029.12,2956.15,2689.53,3072.26,600.03,591.15,14.92,0000 0000 0000 0000 000000
2017-04-06 06:08:39,0.11,1.49,0.00,24.05,27.32,31.08,14.38,47.50,1011.63,2029.06,2953.91,2687.99,3070.61,600.04,591.07,14.97,0000 0000 0000 0000 000000
2017-04-06 06:13:40,0.11,1.50,0.00,24.03,27.32,31.04,14.31,47.47,1011.65,2029.03,2951.81,2686.64,3068.93,599.64,590.72,15.02,0000 0000 0000 0000 000000
2017-04-06 06:18:42,0.11,1.51,0.00,24.05,27.32,31.04,14.39,47.65,1011.71,2029.02,2949.58,2685.20,3067.25,599.93,590.81,15.07,0000 0000 0000 0000 000000
2017-04-06 06:23:43,0.12,1.51,0.00,24.06,27.33,30.99,14.39,47.48,1011.73,2029.02,2947.38,2683.66,3065.43,600.16,591.14,15.12,0000 0000 0000 0000 000000
2017-04-06 06:28:44,0.11,1.52,0.00,24.07,27.35,30.95,14.39,47.55,1011.73,2029.00,2945.21,2682.09,3063.66,600.14,591.17,15.17,0000 0000 0000 0000 000000
2017-04-06 06:33:45,0.11,1.52,0.00,24.08,27.35,30.94,14.39,47.64,1011.73,2029.00,2943.16,2680.69,3061.93,599.93,590.88,15.22,0000 0000 0000 0000 000000
2017-04-06 06:38:47,0.11,1.53,0.00,24.32,27.36,30.98,14.37,47.59,1011.73,2029.00,2941.06,2679.21,3060.23,600.27,590.79,15.27,0000 0000 0000 0000 000000
2017-04-06 06:43:48,0.12,1.54,0.00,24.67,27.39,30.95,14.34,47.49,1011.73,2029.00,2939.02,2677.72,3058.54,600.18,590.13,15.32,0000 0000 0000 0000 000000
2017-04-06 06:48:49,0.12,1.54,0.00,24.34,27.41,30.92,14.28,47.63,1011.73,2028.99,2936.72,2676.18,3056.68,599.83,590.32,15.37,0000 0000 0000 0000 000000
2017-04-06 06:53:50,0.12,1.55,0.00,24.28,27.43,30.98,14.36,47.56,1011.73,2028.94,2934.46,2674.61,3054.88,599.74,590.42,15.42,0000 0000 0000 0000 000000
2017-04-06 06:58:52,0.09,1.56,0.00,24.46,27.45,31.00,14.38,47.58,1011.73,2028.92,2932.43,2673.24,3053.23,600.06,590.42,15.47,0000 0000 0000 0000 000000
2017-04-06 07:03:53,0.11,1.56,0.00,24.33,27.45,31.06,14.35,47.49,1011.73,2028.85,2930.34,2671.78,3051.56,599.70,590.43,15.52,0000 0000 0000 0000 000000
2017-04-06 07:08:54,0.10,1.57,0.00,24.23,27.45,31.14,14.41,47.59,1011.74,2028.76,2928.30,2670.43,3049.92,599.95,590.67,15.57,0000 0000 0000 0000 000000
2017-04-06 07:13:55,0.09,1.57,0.00,24.19,27.45,31.08,14.29,47.48,1011.75,2028.70,2926.30,2669.07,3048.38,599.56,590.37,15.62,0000 0000 0000 0000 000000
2017-04-06 07:18:56,0.11,1.58,0.00,24.19,27.45,31.00,14.40,47.46,1011.74,2028.65,2924.22,2667.69,3046.74,599.63,590.44,15.67,0000 0000 0000 0000 000000
2017-04-06 07:23:58,0.12,1.58,0.00,24.18,27.45,31.08,14.41,47.60,1011.75,2028.79,2922.25,2666.44,3045.23,600.29,591.13,15.72,0000 0000 0000 0000 000000
2017-04-06 07:28:59,0.07,1.59,0.00,24.18,27.43,31.09,14.38,47.52,1011.76,2028.44,2920.17,2664.93,3043.55,600.23,591.05,15.77,0000 0000 0000 0000 000000
2017-04-06 07:34:00,0.11,1.59,0.00,24.25,27.42,31.01,14.39,47.54,1011.76,2028.39,2918.13,2663.60,3041.90,600.06,590.68,15.82,0000 0000 0000 0000 000000
2017-04-06 07:39:01,0.11,1.60,0.00,24.70,27.42,30.92,14.31,47.48,1011.80,2028.37,2916.15,2662.24,3040.37,599.94,589.87,15.87,0000 0000 0000 0000 000000
2017-04-06 07:44:03,0.11,1.60,0.00,24.56,27.45,30.90,14.35,47.48,1012.01,2028.36,2914.05,2660.76,3038.68,600.36,590.57,15.92,0000 0000 0000 0000 000000
2017-04-06 07:49:04,0.10,1.61,0.00,24.30,27.45,30.90,14.41,47.64,1012.09,2028.16,2911.70,2659.27,3036.82,600.08,590.87,15.97,0000 0000 0000 0000 000000
2017-04-06 07:54:05,0.10,1.61,0.00,24.48,27.45,30.92,14.31,47.54,1012.09,2028.05,2909.56,2657.79,3035.18,599.56,590.01,16.02,0000 0000 0000 0000 000000
2017-04-06 07:59:07,0.12,1.62,0.00,24.46,27.45,30.96,14.37,47.68,1012.08,2028.06,2907.60,2656.49,3033.62,600.11,590.57,16.07,0000 0000 0000 0000 000000
2017-04-06 08:04:08,0.10,1.63,0.00,24.32,27.45,31.13,14.37,47.53,1012.07,2028.08,2905.68,2655.21,3032.11,599.86,590.60,16.13,0000 0000 0000 0000 000000
2017-04-06 08:09:09,0.11,1.63,0.00,24.25,27.45,31.07,14.40,47.65,1012.13,2028.04,2903.70,2653.79,3030.51,600.22,591.13,16.18,0000 0000 0000 0000 000000
2017-04-06 08:14:10,0.11,1.64,0.00,24.26,27.42,31.07,14.42,47.72,1012.17,2028.11,2901.79,2652.58,3028.97,599.92,590.84,16.23,0000 0000 0000 0000 000000
2017-04-06 08:19:11,0.10,1.64,0.00,24.29,27.42,30.96,14.35,47.48,1012.22,2028.09,2899.83,2651.29,3027.49,599.70,590.56,16.28,0000 0000 0000 0000 000000
2017-04-06 08:24:12,0.11,1.65,0.00,24.31,27.41,30.90,14.33,47.42,1012.22,2028.09,2897.97,2649.92,3025.96,599.95,590.93,16.33,0000 0000 0000 0000 000000
2017-04-06 08:29:14,0.11,1.65,0.00,24.35,27.40,30.90,14.40,47.67,1012.22,2028.09,2895.87,2648.59,3024.43,599.91,590.68,16.38,0000 0000 0000 0000 000000
2017-04-06 08:34:15,0.11,1.66,0.00,24.37,27.40,30.92,14.40,47.63,1012.23,2028.13,2893.91,2647.33,3022.87,599.95,590.68,16.43,0000 0000 0000 0000 000000
2017-04-06 08:39:16,0.09,1.66,0.00,24.43,27.40,30.89,14.26,47.48,1012.23,2028.09,2891.96,2645.96,3021.36,599.65,590.36,16.48,0000 0000 0000 0000 000000
2017-04-06 08:44:17,0.11,1.67,0.00,24.91,27.40,30.93,14.24,47.38,1012.25,2028.03,2890.02,2644.60,3019.76,599.92,589.69,16.53,0000 0000 0000 0000 000000
2017-04-06 08:49:18,0.10,1.68,0.00,24.76,27.42,30.92,14.28,47.33,1012.26,2028.04,2888.05,2643.31,3018.19,599.92,589.94,16.58,0000 0000 0000 0000 000000
2017-04-06 08:54:19,0.12,1.68,0.00,24.47,27.44,30.86,14.41,47.49,1012.27,2028.01,2885.90,2641.87,3016.54,600.15,590.70,16.63,0000 0000 0000 0000 000000
2017-04-06 08:59:21,0.11,1.69,0.00,24.55,27.45,30.98,14.32,47.38,1012.49,2028.01,2883.88,2640.53,3014.87,599.97,590.48,16.68,0000 0000 0000 0000 000000
2017-04-06 09:04:22,0.10,1.69,0.00,24.48,27.46,31.07,14.32,47.43,1012.50,2028.00,2882.02,2639.22,3013.45,599.84,590.46,16.73,0000 0000 0000 0000 000000
2017-04-06 09:09:23,0.10,1.70,0.00,24.30,27.47,31.10,14.34,47.43,1012.47,2028.00,2880.17,2637.96,3011.94,599.95,590.91,16.78,0000 0000 0000 0000 000000
2017-04-06 09:14:24,0.11,1.70,0.00,24.21,27.45,31.08,14.40,47.52,1012.38,2028.00,2878.30,2636.62,3010.44,600.11,591.18,16.83,0000 0000 0000 0000 000000
2017-04-06 09:19:25,0.10,1.71,0.00,24.15,27.45,31.11,14.34,47.36,1012.42,2028.00,2876.41,2635.42,3008.88,599.82,591.13,16.88,0000 0000 0000 0000 000000
2017-04-06 09:24:26,0.09,1.71,0.00,24.08,27.43,31.04,14.33,47.52,1012.54,2028.00,2874.53,2634.18,3007.56,600.02,591.50,16.93,0000 0000 0000 0000 000000
2017-04-06 09:29:28,0.10,1.72,0.00,24.02,27.42,31.05,14.38,47.63,1012.42,2028.00,2872.69,2632.90,3006.20,599.97,591.53,16.98,0000 0000 0000 0000 000000
2017-04-06 09:34:29,0.11,1.72,0.00,23.96,27.40,31.07,14.43,47.60,1012.54,2028.00,2870.73,2631.67,3004.68,600.01,591.67,17.03,0000 0000 0000 0000 000000
2017-04-06 09:39:30,0.10,1.73,0.00,23.92,27.39,31.04,14.39,47.52,1012.64,2028.01,2868.84,2630.45,3003.30,599.69,591.55,17.08,0000 0000 0000 0000 000000
2017-04-06 09:44:32,0.11,1.74,0.00,23.89,27.37,31.08,14.43,47.48,1012.63,2028.01,2866.85,2629.13,3001.73,599.95,591.78,17.13,0000 0000 0000 0000 000000
2017-04-06 09:49:33,0.11,1.74,0.00,24.23,27.36,31.07,14.37,47.48,1012.68,2028.02,2864.89,2627.81,3000.28,600.03,591.38,17.18,0000 0000 0000 0000 000000
2017-04-06 09:54:35,0.11,1.75,0.00,24.40,27.36,30.96,14.37,47.43,1012.70,2028.05,2863.04,2626.58,2998.77,600.05,590.99,17.23,0000 0000 0000 0000 000000
2017-04-06 09:59:36,0.10,1.75,0.00,24.10,27.35,30.93,14.45,47.66,1012.71,2028.06,2861.06,2625.29,2997.31,600.18,591.71,17.28,0000 0000 0000 0000 000000
2017-04-06 10:04:37,0.11,1.76,0.00,24.14,27.35,31.00,14.41,47.57,1012.70,2028.16,2859.25,2624.03,2995.82,600.05,591.44,17.33,0000 0000 0000 0000 000000
2017-04-06 10:09:39,0.10,1.76,0.00,24.18,27.35,31.03,14.36,47.42,1012.70,2028.12,2857.35,2622.88,2994.36,599.95,591.33,17.38,0000 0000 0000 0000 000000
2017-04-06 10:14:40,0.13,1.77,0.00,23.98,27.33,31.00,14.41,47.51,1012.71,2028.33,2855.42,2621.71,2992.89,599.99,591.68,17.43,0000 0000 0000 0000 000000
2017-04-06 10:19:42,0.14,1.78,0.00,23.86,27.31,30.80,14.32,47.40,1012.71,2028.79,2853.68,2620.62,2991.62,599.48,591.50,17.48,0000 0000 0000 0000 000000
2017-04-06 10:24:43,0.10,1.78,0.00,23.79,27.29,30.69,14.37,47.48,1012.71,2028.93,2851.82,2619.48,2990.19,599.83,591.87,17.53,0000 0000 0000 0000 000000
2017-04-06 10:29:45,0.10,1.79,0.00,23.73,27.26,30.62,14.36,47.52,1012.71,2028.96,2850.04,2618.29,2988.82,599.97,592.19,17.58,0000 0000 0000 0000 000000
2017-04-06 10:34:46,0.09,1.79,0.00,23.66,27.23,30.55,14.47,47.63,1012.71,2028.98,2848.36,2617.18,2987.53,600.22,592.66,17.63,0000 0000 0000 0000 000000
2017-04-06 10:39:47,0.10,1.80,0.00,23.61,27.20,30.60,14.44,47.56,1012.71,2028.99,2846.52,2615.99,2986.14,599.89,592.43,17.68,0000 0000 0000 0000 000000
2017-04-06 10:44:49,0.15,1.80,0.00,23.57,27.17,30.63,14.48,47.59,1012.71,2028.99,2844.34,2614.40,2984.30,600.00,592.62,17.73,0000 0000 0000 0000 000000
2017-04-06 10:49:50,0.63,1.82,0.00,23.56,27.15,30.69,14.46,47.53,1012.71,2028.99,2837.06,2607.97,2977.23,600.25,592.89,17.78,0000 0000 0000 0000 000000
2017-04-06 10:54:51,0.68,1.86,0.00,23.56,27.13,30.77,14.40,47.48,1012.71,2028.99,2827.03,2599.04,2967.41,599.90,592.67,17.83,0000 0000 0000 0000 000000
2017-04-06 10:59:52,0.81,1.90,0.00,23.60,27.12,30.88,14.45,47.53,1012.71,2028.99,2815.85,2588.95,2956.40,600.16,592.53,17.88,0000 0000 0000 0000 000000
2017-04-06 11:04:53,0.89,1.94,0.00,23.57,27.10,30.91,14.41,47.46,1012.71,2028.99,2803.43,2577.74,2944.16,599.91,592.58,17.93,0000 0000 0000 0000 000000
2017-04-06 11:09:55,0.88,1.99,0.00,23.61,27.10,30.91,14.42,47.42,1012.72,2028.99,2790.76,2566.47,2931.92,600.13,592.62,17.98,0000 0000 0000 0000 000000
2017-04-06 11:14:56,0.81,2.03,0.00,23.68,27.09,30.93,14.32,47.42,1012.72,2028.99,2779.06,2556.27,2920.53,599.73,592.11,18.03,0000 0000 0000 0000 000000
2017-04-06 11:19:57,0.74,2.07,0.00,23.70,27.09,30.94,14.45,47.48,1012.73,2028.99,2768.17,2546.75,2909.97,599.86,592.11,18.08,0000 0000 0000 0000 000000
2017-04-06 11:24:59,0.65,2.10,0.00,23.70,27.09,31.02,14.53,47.46,1012.71,2028.99,2758.67,2538.53,2900.89,600.46,592.81,18.13,0000 0000 0000 0000 000000
2017-04-06 11:30:00,0.64,2.13,0.63,23.68,27.09,31.00,14.44,47.42,1012.72,2028.99,2749.71,2530.78,2892.37,600.05,592.57,18.18,0000 0000 0000 0000 000000
2017-04-06 11:35:01,0.82,2.17,1.00,23.66,27.10,30.99,14.40,47.47,1012.73,2028.99,2739.03,2521.08,2881.77,599.98,592.55,18.23,0000 0000 0000 0000 000000
2017-04-06 11:40:03,0.74,2.21,1.00,23.60,27.10,31.05,14.42,47.52,1012.73,2028.99,2728.42,2511.70,2871.58,599.97,592.56,18.28,0000 0000 0000 0000 000000
2017-04-06 11:45:04,0.74,2.25,1.00,23.57,27.10,31.10,14.46,47.51,1012.74,2028.99,2718.18,2502.77,2861.72,599.82,592.45,18.33,0000 0000 0000 0000 000000
2017-04-06 11:50:05,0.68,2.28,1.00,23.56,27.11,31.14,14.50,47.57,1012.73,2028.99,2708.57,2494.44,2852.41,599.85,592.43,18.38,0000 0000 0000 0000 000000
2017-04-06 11:55:07,0.62,2.31,1.00,23.52,27.12,31.17,14.45,47.48,1012.73,2028.98,2699.93,2487.01,2844.11,600.15,592.85,18.43,0000 0000 0000 0000 000000
2017-04-06 12:00:08,0.54,2.35,1.00,23.53,27.12,31.16,14.45,47.59,1012.73,2028.97,2692.10,2480.28,2836.65,599.99,592.71,18.48,0000 0000 0000 0000 000000
2017-04-06 12:05:10,0.39,2.37,1.00,23.53,27.13,31.17,14.42,47.53,1012.73,2028.94,2686.07,2475.28,2831.07,600.01,592.70,18.53,0000 0000 0000 0000 000000
2017-04-06 12:10:11,0.32,2.38,1.00,23.50,27.14,31.18,14.48,47.58,1012.72,2028.95,2681.34,2471.42,2826.67,599.98,592.84,18.58,0000 0000 0000 0000 000000
2017-04-06 12:15:12,0.30,2.40,1.00,23.46,27.15,31.19,14.36,47.55,1012.72,2028.93,2676.88,2467.92,2822.65,599.79,592.66,18.63,0000 0000 0000 0000 000000
2017-04-06 12:20:14,0.24,2.41,1.00,23.42,27.15,31.25,14.46,47.55,1012.72,2028.75,2672.87,2464.64,2818.94,599.97,592.88,18.68,0000 0000 0000 0000 000000
2017-04-06 12:25:15,0.26,2.43,1.00,23.38,27.15,31.25,14.49,47.62,1012.73,2028.57,2668.95,2461.55,2815.49,599.94,592.96,18.73,0000 0000 0000 0000 000000
2017-04-06 12:30:16,0.25,2.44,0.33,23.37,27.15,31.28,14.47,47.65,1012.72,2028.40,2664.94,2458.48,2812.05,599.94,593.00,18.78,0000 0000 0000 0000 000000
2017-04-06 12:35:17,0.29,2.45,0.00,23.36,27.15,31.23,14.40,47.58,1012.72,2028.62,2660.91,2455.48,2808.58,599.82,592.86,18.83,0000 0000 0000 0000 000000
2017-04-06 12:40:19,0.28,2.47,0.00,23.32,27.16,31.24,14.52,47.63,1012.72,2028.71,2657.09,2452.45,2805.14,599.74,592.86,18.88,0000 0000 0000 0000 000000
2017-04-06 12:45:20,0.31,2.48,0.00,23.28,27.16,31.23,14.43,47.63,1012.71,2028.61,2652.79,2449.09,2801.35,599.84,593.03,18.93,0000 0000 0000 0000 000000
2017-04-06 12:50:21,0.45,2.50,0.00,23.29,27.16,31.22,14.52,47.64,1012.71,2028.57,2647.10,2444.40,2796.08,600.12,593.35,18.98,0000 0000 0000 0000 000000
2017-04-06 12:55:22,0.48,2.53,0.00,23.29,27.16,31.24,14.52,47.72,1012.71,2028.58,2640.59,2438.83,2789.88,600.51,593.61,19.03,0000 0000 0000 0000 000000